Location: *
(58.7167°N, 26.1833°E)
Time: 15:06:44
(UTC+00:00)

Cosmos 1553 Rocket - Pass Details

Date: 25 August 2019
Orbit: 942 x 1007 km, 82.9° (Epoch: 19 September)

Event Time Altitude Azimuth Distance (km) Brightness Sun altitude
Rises 18:07:38 0° 181° (S) 3,683 6.7 -4.5°
Reaches altitude 10° 18:10:08 10° 179° (S) 2,747 6.1 -4.8°
Maximum altitude 18:16:25 71° 97° (E) 1,056 4.1 -5.5°
Drops below altitude 10° 18:22:48 10° 15° (NNE) 2,796 6.6 -6.2°
Sets 18:25:22 0° 14° (NNE) 3,752 7.3 -6.4°
